When you browse on this site, cookies collect data to enhance your experience and personalize the content and advertising you see.
Visit our Privacy Policy to learn more. By continuing to use the site, you agree to this use of cookies and data.
  • In Slovakia
  • List of Countries
  • For 7 days
  • Water Temperature
  • Weather Map
  • Weather Widgets
  • user-avatar
    Login

    Hourly Weather Annaba

    Today, 20 November, Wednesday

    Time Temperature Precipitation Wind Pressure Humidity
    00:00 +10°C° 0 mm 2 mps 761 mmHg 79%
    01:00 +10°C° 0 mm 2 mps 761 mmHg 80%
    02:00 +10°C° 0 mm 2 mps 761 mmHg 80%
    03:00 +10°C° 0 mm 2 mps 760 mmHg 80%
    04:00 +10°C° 0 mm 2 mps 760 mmHg 80%
    05:00 +10°C° 0 mm 2 mps 760 mmHg 79%
    06:00 +9°C° 0 mm 2 mps 760 mmHg 79%
    07:00 +9°C° 0 mm 2 mps 760 mmHg 78%
    08:00 +12°C° 0 mm 2 mps 760 mmHg 73%
    09:00 +13°C° 0 mm 2 mps 760 mmHg 68%
    10:00 +15°C° 0 mm 2 mps 760 mmHg 62%
    11:00 +16°C° 0 mm 2 mps 760 mmHg 57%
    12:00 +17°C° 0 mm 2 mps 759 mmHg 51%
    13:00 +19°C° 0 mm 2 mps 759 mmHg 45%
    14:00 +19°C° 0 mm 2 mps 759 mmHg 47%
    15:00 +18°C° 0 mm 2 mps 758 mmHg 49%
    16:00 +19°C° 0 mm 1 mps 758 mmHg 51%
    17:00 +17°C° 0 mm 2 mps 758 mmHg 53%
    18:00 +16°C° 0 mm 2 mps 758 mmHg 56%
    19:00 +15°C° 0 mm 2 mps 758 mmHg 59%
    20:00 +13°C° 0 mm 3 mps 758 mmHg 59%
    21:00 +13°C° 0 mm 3 mps 758 mmHg 59%
    22:00 +12°C° 0 mm 3 mps 758 mmHg 59%
    23:00 +12°C° 0 mm 3 mps 758 mmHg 59%

    Tomorrow, 21 November, Thursday

    Time Temperature Precipitation Wind Pressure Humidity
    00:00 +12°C° 0 mm 3 mps 758 mmHg 58%
    01:00 +12°C° 0 mm 3 mps 758 mmHg 58%
    02:00 +12°C° 0 mm 3 mps 758 mmHg 58%
    03:00 +12°C° 0 mm 3 mps 758 mmHg 58%
    04:00 +12°C° 0 mm 3 mps 757 mmHg 58%
    05:00 +12°C° 0 mm 3 mps 757 mmHg 57%
    06:00 +12°C° 0 mm 3 mps 757 mmHg 57%
    07:00 +12°C° 0 mm 3 mps 757 mmHg 56%
    08:00 +13°C° 0 mm 3 mps 757 mmHg 55%
    09:00 +14°C° 0 mm 3 mps 758 mmHg 53%
    10:00 +17°C° 0 mm 3 mps 758 mmHg 52%
    11:00 +18°C° 0 mm 3 mps 758 mmHg 49%
    12:00 +19°C° 0 mm 3 mps 757 mmHg 46%
    13:00 +20°C° 0 mm 3 mps 757 mmHg 43%
    14:00 +19°C° 0 mm 3 mps 757 mmHg 46%
    15:00 +19°C° 0 mm 2 mps 757 mmHg 49%
    16:00 +19°C° 0 mm 2 mps 757 mmHg 52%
    17:00 +19°C° 0 mm 1 mps 757 mmHg 55%
    18:00 +16°C° 0 mm 1 mps 758 mmHg 59%
    19:00 +15°C° 0 mm 1 mps 758 mmHg 62%
    20:00 +15°C° 0 mm 1 mps 758 mmHg 63%
    21:00 +15°C° 0 mm 1 mps 759 mmHg 64%
    22:00 +14°C° 0 mm 1 mps 759 mmHg 65%
    23:00 +14°C° 0 mm 1 mps 759 mmHg 64%

    Day after tomorrow, 22 November, Friday

    Time Temperature Precipitation Wind Pressure Humidity
    00:00 +14°C° 0 mm 1 mps 759 mmHg 64%
    01:00 +14°C° 0 mm 1 mps 759 mmHg 64%
    02:00 +14°C° 0 mm 2 mps 759 mmHg 64%
    03:00 +14°C° 0 mm 2 mps 758 mmHg 63%
    04:00 +14°C° 0 mm 2 mps 758 mmHg 63%
    05:00 +14°C° 0 mm 2 mps 758 mmHg 62%
    06:00 +14°C° 0 mm 2 mps 758 mmHg 61%
    07:00 +14°C° 0 mm 2 mps 758 mmHg 61%
    08:00 +16°C° 0 mm 3 mps 758 mmHg 59%
    09:00 +17°C° 0 mm 3 mps 758 mmHg 56%
    10:00 +18°C° 0 mm 3 mps 758 mmHg 54%
    11:00 +19°C° 0 mm 3 mps 758 mmHg 50%
    12:00 +21°C° 0 mm 3 mps 757 mmHg 46%
    13:00 +22°C° 0 mm 3 mps 756 mmHg 42%
    14:00 +22°C° 0 mm 3 mps 756 mmHg 44%
    15:00 +23°C° 0 mm 2 mps 756 mmHg 46%
    16:00 +23°C° 0 mm 1 mps 755 mmHg 48%
    17:00 +20°C° 0 mm 2 mps 755 mmHg 49%
    18:00 +19°C° 0 mm 2 mps 756 mmHg 49%
    19:00 +17°C° 0 mm 3 mps 756 mmHg 50%
    20:00 +17°C° 0 mm 3 mps 756 mmHg 49%
    21:00 +15°C° 0 mm 4 mps 756 mmHg 47%
    22:00 +14°C° 0 mm 4 mps 756 mmHg 45%
    23:00 +14°C° 0 mm 4 mps 755 mmHg 45%

    23 November, Saturday

    Time Temperature Precipitation Wind Pressure Humidity
    00:00 +14°C° 0 mm 5 mps 755 mmHg 44%
    01:00 +14°C° 0 mm 5 mps 755 mmHg 44%
    02:00 +14°C° 0 mm 5 mps 754 mmHg 44%
    03:00 +14°C° 0 mm 5 mps 754 mmHg 44%
    04:00 +14°C° 0 mm 5 mps 753 mmHg 44%
    05:00 +14°C° 0 mm 5 mps 753 mmHg 44%
    06:00 +14°C° 0 mm 5 mps 753 mmHg 44%
    07:00 +14°C° 0 mm 5 mps 753 mmHg 45%
    08:00 +15°C° 0 mm 6 mps 753 mmHg 45%
    09:00 +15°C° 0 mm 6 mps 752 mmHg 46%
    10:00 +16°C° 0 mm 6 mps 752 mmHg 46%
    11:00 +17°C° 0 mm 6 mps 752 mmHg 50%
    12:00 +19°C° 0 mm 6 mps 751 mmHg 54%
    13:00 +20°C° 0 mm 6 mps 751 mmHg 58%
    14:00 +19°C° 0.1 mm 5 mps 751 mmHg 60%
    15:00 +17°C° 0.1 mm 5 mps 751 mmHg 63%
    16:00 +16°C° 0.1 mm 5 mps 750 mmHg 65%
    17:00 +16°C° 0.1 mm 5 mps 750 mmHg 68%
    18:00 +15°C° 0.1 mm 5 mps 751 mmHg 70%
    19:00 +14°C° 0.1 mm 5 mps 751 mmHg 72%
    20:00 +13°C° 1.4 mm 5 mps 751 mmHg 75%
    21:00 +11°C° 1.4 mm 6 mps 751 mmHg 79%
    22:00 +11°C° 1.4 mm 6 mps 751 mmHg 82%
    23:00 +10°C° 0.5 mm 6 mps 751 mmHg 82%

    24 November, Sunday

    Time Temperature Precipitation Wind Pressure Humidity
    00:00 +10°C° 0.5 mm 6 mps 751 mmHg 82%
    01:00 +10°C° 0.5 mm 6 mps 751 mmHg 81%
    02:00 +10°C° 0.5 mm 6 mps 751 mmHg 80%
    03:00 +10°C° 0.5 mm 6 mps 750 mmHg 78%
    04:00 +10°C° 0.5 mm 7 mps 750 mmHg 76%
    05:00 +10°C° 0.6 mm 7 mps 750 mmHg 78%
    06:00 +10°C° 0.6 mm 7 mps 750 mmHg 80%
    07:00 +11°C° 0.6 mm 7 mps 750 mmHg 81%
    08:00 +11°C° 0.9 mm 8 mps 750 mmHg 80%
    09:00 +12°C° 0.9 mm 8 mps 750 mmHg 79%
    10:00 +13°C° 0.9 mm 9 mps 751 mmHg 79%
    11:00 +13°C° 3 mm 9 mps 751 mmHg 82%
    12:00 +12°C° 3 mm 9 mps 751 mmHg 86%
    13:00 +12°C° 3 mm 9 mps 751 mmHg 90%
    14:00 +13°C° 2.3 mm 9 mps 751 mmHg 89%
    15:00 +13°C° 2.3 mm 9 mps 751 mmHg 88%
    16:00 +13°C° 2.3 mm 9 mps 751 mmHg 88%
    17:00 +13°C° 1.2 mm 9 mps 751 mmHg 87%
    18:00 +15°C° 1.2 mm 9 mps 752 mmHg 87%
    19:00 +15°C° 1.2 mm 9 mps 752 mmHg 86%
    20:00 +15°C° 1.7 mm 9 mps 753 mmHg 86%
    21:00 +15°C° 1.7 mm 8 mps 753 mmHg 86%
    22:00 +15°C° 1.7 mm 8 mps 754 mmHg 86%
    23:00 +15°C° 0.8 mm 7 mps 754 mmHg 87%

    25 November, Monday

    Time Temperature Precipitation Wind Pressure Humidity
    00:00 +15°C° 0.8 mm 7 mps 754 mmHg 87%
    01:00 +15°C° 0.8 mm 6 mps 755 mmHg 88%
    02:00 +15°C° 0.5 mm 7 mps 755 mmHg 88%
    03:00 +15°C° 0.5 mm 7 mps 755 mmHg 87%
    04:00 +15°C° 0.5 mm 7 mps 755 mmHg 87%
    05:00 +15°C° 0.6 mm 7 mps 756 mmHg 87%
    06:00 +15°C° 0.6 mm 8 mps 756 mmHg 86%
    07:00 +15°C° 0.6 mm 8 mps 757 mmHg 86%
    08:00 +16°C° 0.4 mm 9 mps 758 mmHg 85%
    09:00 +16°C° 0.4 mm 9 mps 758 mmHg 83%
    10:00 +16°C° 0.4 mm 9 mps 759 mmHg 81%
    11:00 +17°C° 0.3 mm 9 mps 759 mmHg 81%
    12:00 +17°C° 0.3 mm 9 mps 760 mmHg 81%
    13:00 +17°C° 0.3 mm 9 mps 760 mmHg 80%
    14:00 +16°C° 0.4 mm 9 mps 760 mmHg 82%
    15:00 +16°C° 0.4 mm 8 mps 760 mmHg 83%
    16:00 +16°C° 0.4 mm 8 mps 761 mmHg 85%
    17:00 +15°C° 0.2 mm 7 mps 761 mmHg 85%
    18:00 +15°C° 0.2 mm 7 mps 761 mmHg 86%
    19:00 +15°C° 0.2 mm 7 mps 762 mmHg 86%
    20:00 +15°C° 0.1 mm 6 mps 762 mmHg 86%
    21:00 +14°C° 0.1 mm 6 mps 763 mmHg 86%
    22:00 +14°C° 0.1 mm 5 mps 763 mmHg 85%
    23:00 +13°C° 0 mm 5 mps 763 mmHg 85%
    Show more